Flag for Central African Republic Weather past 2 weeks in Bimbo, Central African Republic

Now
91 °F

Sunny.


Feels Like: 100 °F
Forecast: 72 / 89 °F
Wind: 1 mph from North

Location: Bangui Airport


UV Index: 3 (Moderate)

Visibility: 10 mi


Pressure: 29.89 "Hg

Humidity: 56%

Dew point: 73 °F

Location of BimboLocation

Historic Weather in Bimbo

°F

Bimbo temperature yesterday

Maximum temperature yesterday: 95 °F (at 4:00 PM)
Minimum temperature yesterday: 73 °F (at 3:00 AM)
Average temperature yesterday: 82 °F

Past Weeks' High & Low Weather Summary

 TemperatureHumidityPressure
High97 °F (Apr 9, 1:00 PM)100% (Apr 11, 2:00 AM)30.01 "Hg (Apr 11, 2:00 AM)
Low70 °F (Apr 12, 6:00 AM)42% (Apr 9, 1:00 PM)29.71 "Hg (Apr 9, 5:00 PM)
Average80 °F80%29.85 "Hg
* Reported Apr 4 9:00 AM — Apr 19 9:00 AM, Bimbo, Weather by CustomWeather, © 2014

Note: Actual official high and low records may vary slightly from our data, if they occured in-between our weather recording intervals... More about our weather records

Advertising

Historic Weather Conditions — Data for Previous 24 hours

 ConditionsComfort  
Time TempWeatherWind HumidityBarometerVisibility
9:00 AM
Apr 19
86 °FSunny.1 mph66%29.89 "Hg10 mi
8:00 AM79 °FSunny.1 mph84%29.89 "Hg10 mi
7:00 AM75 °FSunny.2 mph94%29.89 "Hg10 mi
6:00 AM73 °FSunny.3 mph94%29.86 "Hg10 mi
5:00 AM73 °FClear.1 mph94%29.86 "Hg10 mi
4:00 AM73 °FClear.No wind94%29.83 "Hg10 mi
3:00 AM73 °FClear.No wind94%29.83 "Hg10 mi
2:00 AM75 °FClear.No wind94%29.83 "Hg10 mi
1:00 AM75 °FClear.No wind94%29.83 "Hg10 mi
10:00 PM
Apr 18
79 °FClear.2 mph89%29.83 "Hg10 mi
9:00 PM79 °FClear.No wind84%29.77 "Hg10 mi
8:00 PM81 °FClear.No wind84%29.74 "Hg10 mi
7:00 PM84 °FClear.No wind79%29.71 "Hg10 mi
6:00 PM88 °FClear.No wind62%29.71 "Hg10 mi
5:00 PM91 °FScattered clouds.No wind52%29.74 "HgN/A
4:00 PM95 °FScattered clouds.3 mph44%29.74 "HgN/A
3:00 PM93 °FScattered clouds.3 mph44%29.74 "HgN/A
2:00 PM93 °FScattered clouds.2 mph47%29.77 "HgN/A
1:00 PM91 °FPartly sunny.3 mph52%29.80 "HgN/A
12:00 PM90 °FPartly sunny.2 mph55%29.86 "HgN/A
11:00 AM86 °FScattered clouds.6 mph62%29.89 "HgN/A
Weather by CustomWeather, © 2014

See weather overview